Find Shiyan 27-04

NORAD ID: 63602 Int'l Des: 2025-078 Owner: CAST Country: CN operational
LEOCIRCULARRETROGRADESSO

实时位置

正在加载3D地球...

关于 Shiyan 27-04

正在加载描述...

即将过境

Passes for default location (London). Set your location on the main map for personalized predictions.

高度历史

Loading altitude history...

两行轨道根数

1 63602U 25078D 26106.96293031 .00000001 00000-0 63663-4 0 9996
2 63602 99.6960 115.1030 0001031 99.8943 260.2311 13.57243528 49228
Epoch: Apr 16, 2026 • Age: 10 hours

当前状态

高度 1059.3 km
速度 7.32 km/s
星下点 -34.88°S, 133.53°E
发射日期 Apr 18, 2025
运行时间 0.9 years
类型 other

技术详情

分类 Payload
质量 300.00 kg
干质量 300.00 kg
总质量 300.00 kg
长度 0.30 m
直径 3.00 m
跨度 10.00 m
形状 Box+pan
制造商 CAST
平台类型 SW27
阶段状态 In Orbit
所有者/国家 CAST/CN

Most Searched